Location: Bennemühlen
(52.5740°N, 9.7135°E)
Time: 06:55:36
(UTC+00:00)

A-11 Canister half - Pass Details

Date: 23 February 2026
Orbit: 1512 x 1687 km, 47.2° (Epoch: 8 March)

Event Time Altitude Azimuth Distance (km) Brightness Sun altitude
Rises 03:13:45 0° 282° (WNW) 4,860 - -28.8°
Reaches altitude 10° 03:22:04 10° 240° (WSW) 3,804 - -27.6°
Maximum altitude 03:22:18 10° 239° (WSW) 3,801 - -27.5°
Drops below altitude 10° 03:22:28 10° 238° (WSW) 3,800 - -27.5°
Sets 03:30:43 0° 195° (SSW) 4,716 - -26.3°
